owner,sensor,date,latitude,longitude,vertical_datum,wind_speed,wind_to_direction,wind_speed_of_gust,qcFlag 
LUMCON,ioos:station:LUMCON:wisl1:1,2019-08-01T00:00:00Z,29.1144,-90.1840,1.0,1.7,109.0,28.8,'11111222,11111222,11111222' 
LUMCON,ioos:station:LUMCON:wisl1:1,2019-08-01T00:15:00Z,29.1144,-90.1840,1.0,2.5,120.0,28.7,'11111222,11111222,11111222' 
LUMCON,ioos:station:LUMCON:wisl1:1,2019-08-01T00:30:00Z,29.1144,-90.1840,1.0,1.9,131.0,28.6,'11111222,11111222,11111222' 
LUMCON,ioos:station:LUMCON:wisl1:1,2019-08-01T00:45:00Z,29.1144,-90.1840,1.0,0.7,155.0,28.6,'11111222,11111222,11111222' 
LUMCON,ioos:station:LUMCON:wisl1:1,2019-08-01T01:00:00Z,29.1144,-90.1840,1.0,0.6,121.0,28.5,'11111222,11111222,11111222' 
LUMCON,ioos:station:LUMCON:wisl1:1,2019-08-01T01:15:00Z,29.1144,-90.1840,1.0,1.9,157.0,28.5,'11111222,11111222,11111222' 
LUMCON,ioos:station:LUMCON:wisl1:1,2019-08-01T01:30:00Z,29.1144,-90.1840,1.0,1.4,88.0,28.4,'11111222,11111222,11111222' 
LUMCON,ioos:station:LUMCON:wisl1:1,2019-08-01T01:45:00Z,29.1144,-90.1840,1.0,1.6,127.0,28.4,'11111222,11111222,11111222' 
LUMCON,ioos:station:LUMCON:wisl1:1,2019-08-01T02:00:00Z,29.1144,-90.1840,1.0,1.4,113.0,28.4,'11111222,11111222,11111222' 
LUMCON,ioos:station:LUMCON:wisl1:1,2019-08-01T02:15:00Z,29.1144,-90.1840,1.0,1.7,111.0,28.4,'11111222,11111222,11111222' 
LUMCON,ioos:station:LUMCON:wisl1:1,2019-08-01T02:30:00Z,29.1144,-90.1840,1.0,0.1,217.0,28.6,'11111222,11111222,11111222' 
LUMCON,ioos:station:LUMCON:wisl1:1,2019-08-01T02:45:00Z,29.1144,-90.1840,1.0,0.9,17.0,28.4,'11111222,11111222,11111222' 
LUMCON,ioos:station:LUMCON:wisl1:1,2019-08-01T03:00:00Z,29.1144,-90.1840,1.0,0.7,76.0,28.4,'11111222,11111222,11111222' 
LUMCON,ioos:station:LUMCON:wisl1:1,2019-08-01T03:15:00Z,29.1144,-90.1840,1.0,1.1,225.0,28.2,'11111222,11111222,11111222' 
LUMCON,ioos:station:LUMCON:wisl1:1,2019-08-01T03:30:00Z,29.1144,-90.1840,1.0,1.2,52.0,28.3,'11111222,11111222,11111222' 
LUMCON,ioos:station:LUMCON:wisl1:1,2019-08-01T03:45:00Z,29.1144,-90.1840,1.0,1.0,264.0,27.9,'11111222,11111222,11111222' 
LUMCON,ioos:station:LUMCON:wisl1:1,2019-08-01T04:00:00Z,29.1144,-90.1840,1.0,0.8,260.0,27.9,'11111222,11111222,11111222' 
LUMCON,ioos:station:LUMCON:wisl1:1,2019-08-01T04:15:00Z,29.1144,-90.1840,1.0,1.6,251.0,28.0,'11111222,11111222,11111222' 
LUMCON,ioos:station:LUMCON:wisl1:1,2019-08-01T04:30:00Z,29.1144,-90.1840,1.0,1.0,276.0,28.0,'11111222,11111222,11111222' 
LUMCON,ioos:station:LUMCON:wisl1:1,2019-08-01T04:45:00Z,29.1144,-90.1840,1.0,0.8,309.0,28.0,'11111222,11111222,11111222' 
LUMCON,ioos:station:LUMCON:wisl1:1,2019-08-01T05:00:00Z,29.1144,-90.1840,1.0,0.9,315.0,27.8,'11111222,11111222,11111222' 
LUMCON,ioos:station:LUMCON:wisl1:1,2019-08-01T05:15:00Z,29.1144,-90.1840,1.0,1.0,303.0,27.9,'11111222,11111222,11111222' 
LUMCON,ioos:station:LUMCON:wisl1:1,2019-08-01T05:30:00Z,29.1144,-90.1840,1.0,0.7,212.0,27.7,'11111222,11111222,11111222' 
LUMCON,ioos:station:LUMCON:wisl1:1,2019-08-01T05:45:00Z,29.1144,-90.1840,1.0,1.0,282.0,27.7,'11111222,11111222,11111222' 
LUMCON,ioos:station:LUMCON:wisl1:1,2019-08-01T06:00:00Z,29.1144,-90.1840,1.0,0.3,310.0,27.8,'11111222,11111222,11111222' 
LUMCON,ioos:station:LUMCON:wisl1:1,2019-08-01T06:15:00Z,29.1144,-90.1840,1.0,1.6,123.0,27.9,'11111222,11111222,11111222' 
LUMCON,ioos:station:LUMCON:wisl1:1,2019-08-01T06:30:00Z,29.1144,-90.1840,1.0,1.5,110.0,28.2,'11111222,11111222,11111222' 
LUMCON,ioos:station:LUMCON:wisl1:1,2019-08-01T06:45:00Z,29.1144,-90.1840,1.0,2.0,108.0,28.2,'11111222,11111222,11111222' 
LUMCON,ioos:station:LUMCON:wisl1:1,2019-08-01T07:00:00Z,29.1144,-90.1840,1.0,1.0,113.0,28.2,'11111222,11111222,11111222' 
LUMCON,ioos:station:LUMCON:wisl1:1,2019-08-01T07:15:00Z,29.1144,-90.1840,1.0,0.5,148.0,27.9,'11111222,11111222,11111222' 
LUMCON,ioos:station:LUMCON:wisl1:1,2019-08-01T07:30:00Z,29.1144,-90.1840,1.0,1.0,306.0,27.8,'11111222,11111222,11111222' 
LUMCON,ioos:station:LUMCON:wisl1:1,2019-08-01T07:45:00Z,29.1144,-90.1840,1.0,0.9,346.0,27.7,'11111222,11111222,11111222' 
LUMCON,ioos:station:LUMCON:wisl1:1,2019-08-01T08:00:00Z,29.1144,-90.1840,1.0,0.6,29.0,27.8,'11111222,11111222,11111222' 
LUMCON,ioos:station:LUMCON:wisl1:1,2019-08-01T08:15:00Z,29.1144,-90.1840,1.0,1.2,341.0,27.7,'11111222,11111222,11111222' 
LUMCON,ioos:station:LUMCON:wisl1:1,2019-08-01T08:30:00Z,29.1144,-90.1840,1.0,0.8,347.0,27.8,'11111222,11111222,11111222' 
LUMCON,ioos:station:LUMCON:wisl1:1,2019-08-01T08:45:00Z,29.1144,-90.1840,1.0,1.3,328.0,27.8,'11111222,11111222,11111222' 
LUMCON,ioos:station:LUMCON:wisl1:1,2019-08-01T09:00:00Z,29.1144,-90.1840,1.0,1.4,345.0,27.7,'11111222,11111222,11111222' 
LUMCON,ioos:station:LUMCON:wisl1:1,2019-08-01T09:15:00Z,29.1144,-90.1840,1.0,1.7,356.0,27.6,'11111222,11111222,11111222' 
LUMCON,ioos:station:LUMCON:wisl1:1,2019-08-01T09:30:00Z,29.1144,-90.1840,1.0,2.1,324.0,27.5,'11111222,11111222,11111222' 
LUMCON,ioos:station:LUMCON:wisl1:1,2019-08-01T09:45:00Z,29.1144,-90.1840,1.0,2.3,320.0,27.6,'11111222,11111222,11111222' 
LUMCON,ioos:station:LUMCON:wisl1:1,2019-08-01T10:00:00Z,29.1144,-90.1840,1.0,2.2,317.0,27.5,'11111222,11111222,11111222' 
LUMCON,ioos:station:LUMCON:wisl1:1,2019-08-01T10:15:00Z,29.1144,-90.1840,1.0,3.0,346.0,27.3,'11111222,11111222,11111222' 
LUMCON,ioos:station:LUMCON:wisl1:1,2019-08-01T10:30:00Z,29.1144,-90.1840,1.0,2.5,346.0,27.1,'11111222,11111222,11111222' 
LUMCON,ioos:station:LUMCON:wisl1:1,2019-08-01T10:45:00Z,29.1144,-90.1840,1.0,2.3,350.0,27.0,'11111222,11111222,11111222' 
LUMCON,ioos:station:LUMCON:wisl1:1,2019-08-01T11:00:00Z,29.1144,-90.1840,1.0,2.5,322.0,26.8,'11111222,11111222,11111222' 
LUMCON,ioos:station:LUMCON:wisl1:1,2019-08-01T11:15:00Z,29.1144,-90.1840,1.0,2.1,331.0,27.0,'11111222,11111222,11111222' 
LUMCON,ioos:station:LUMCON:wisl1:1,2019-08-01T11:30:00Z,29.1144,-90.1840,1.0,2.8,330.0,27.0,'11111222,11111222,11111222' 
LUMCON,ioos:station:LUMCON:wisl1:1,2019-08-01T11:45:00Z,29.1144,-90.1840,1.0,4.1,317.0,26.9,'11111222,11111222,11111222' 
LUMCON,ioos:station:LUMCON:wisl1:1,2019-08-01T12:00:00Z,29.1144,-90.1840,1.0,3.1,344.0,27.0,'11111222,11111222,11111222' 
LUMCON,ioos:station:LUMCON:wisl1:1,2019-08-01T12:15:00Z,29.1144,-90.1840,1.0,3.4,321.0,27.1,'11111222,11111222,11111222' 
LUMCON,ioos:station:LUMCON:wisl1:1,2019-08-01T12:30:00Z,29.1144,-90.1840,1.0,4.3,323.0,27.1,'11111222,11111222,11111222' 
LUMCON,ioos:station:LUMCON:wisl1:1,2019-08-01T12:45:00Z,29.1144,-90.1840,1.0,3.1,337.0,27.0,'11111222,11111222,11111222' 
LUMCON,ioos:station:LUMCON:wisl1:1,2019-08-01T13:00:00Z,29.1144,-90.1840,1.0,2.0,345.0,26.9,'11111222,11111222,11111222' 
LUMCON,ioos:station:LUMCON:wisl1:1,2019-08-01T13:15:00Z,29.1144,-90.1840,1.0,2.9,353.0,27.0,'11111222,11111222,11111222' 
LUMCON,ioos:station:LUMCON:wisl1:1,2019-08-01T13:30:00Z,29.1144,-90.1840,1.0,2.6,2.0,27.2,'11111222,11111222,11111222' 
LUMCON,ioos:station:LUMCON:wisl1:1,2019-08-01T13:45:00Z,29.1144,-90.1840,1.0,3.0,357.0,27.3,'11111222,11111222,11111222' 
LUMCON,ioos:station:LUMCON:wisl1:1,2019-08-01T14:00:00Z,29.1144,-90.1840,1.0,3.5,344.0,27.6,'11111222,11111222,11111222' 
LUMCON,ioos:station:LUMCON:wisl1:1,2019-08-01T14:15:00Z,29.1144,-90.1840,1.0,3.8,350.0,27.9,'11111222,11111222,11111222' 
LUMCON,ioos:station:LUMCON:wisl1:1,2019-08-01T14:30:00Z,29.1144,-90.1840,1.0,3.3,9.0,28.0,'11111222,11111222,11111222' 
LUMCON,ioos:station:LUMCON:wisl1:1,2019-08-01T14:45:00Z,29.1144,-90.1840,1.0,3.9,346.0,28.0,'11111222,11111222,11111222' 
LUMCON,ioos:station:LUMCON:wisl1:1,2019-08-01T15:00:00Z,29.1144,-90.1840,1.0,3.8,13.0,28.0,'11111222,11111222,11111222' 
LUMCON,ioos:station:LUMCON:wisl1:1,2019-08-01T15:15:00Z,29.1144,-90.1840,1.0,3.3,18.0,28.3,'11111222,11111222,11111222' 
LUMCON,ioos:station:LUMCON:wisl1:1,2019-08-01T15:30:00Z,29.1144,-90.1840,1.0,4.6,350.0,28.4,'11111222,11111222,11111222' 
LUMCON,ioos:station:LUMCON:wisl1:1,2019-08-01T15:45:00Z,29.1144,-90.1840,1.0,4.4,350.0,28.2,'11111222,11111222,11111222' 
LUMCON,ioos:station:LUMCON:wisl1:1,2019-08-01T16:00:00Z,29.1144,-90.1840,1.0,3.8,23.0,28.2,'11111222,11111222,11111222' 
LUMCON,ioos:station:LUMCON:wisl1:1,2019-08-01T16:15:00Z,29.1144,-90.1840,1.0,3.8,9.0,28.4,'11111222,11111222,11111222' 
LUMCON,ioos:station:LUMCON:wisl1:1,2019-08-01T16:30:00Z,29.1144,-90.1840,1.0,2.9,27.0,28.3,'11111222,11111222,11111222' 
LUMCON,ioos:station:LUMCON:wisl1:1,2019-08-01T16:45:00Z,29.1144,-90.1840,1.0,3.6,48.0,28.7,'11111222,11111222,11111222' 
LUMCON,ioos:station:LUMCON:wisl1:1,2019-08-01T17:00:00Z,29.1144,-90.1840,1.0,2.8,43.0,28.8,'11111222,11111222,11111222' 
LUMCON,ioos:station:LUMCON:wisl1:1,2019-08-01T17:15:00Z,29.1144,-90.1840,1.0,4.0,73.0,28.8,'11111222,11111222,11111222' 
LUMCON,ioos:station:LUMCON:wisl1:1,2019-08-01T17:30:00Z,29.1144,-90.1840,1.0,2.8,59.0,28.8,'11111222,11111222,11111222' 
LUMCON,ioos:station:LUMCON:wisl1:1,2019-08-01T17:45:00Z,29.1144,-90.1840,1.0,3.1,79.0,28.9,'11111222,11111222,11111222' 
LUMCON,ioos:station:LUMCON:wisl1:1,2019-08-01T18:00:00Z,29.1144,-90.1840,1.0,3.1,92.0,29.2,'11111222,11111222,11111222' 
LUMCON,ioos:station:LUMCON:wisl1:1,2019-08-01T18:15:00Z,29.1144,-90.1840,1.0,2.8,79.0,29.0,'11111222,11111222,11111222' 
LUMCON,ioos:station:LUMCON:wisl1:1,2019-08-01T18:30:00Z,29.1144,-90.1840,1.0,1.1,94.0,29.0,'11111222,11111222,11111222' 
LUMCON,ioos:station:LUMCON:wisl1:1,2019-08-01T18:45:00Z,29.1144,-90.1840,1.0,0.8,117.0,29.1,'11111222,11111222,11111222' 
LUMCON,ioos:station:LUMCON:wisl1:1,2019-08-01T19:00:00Z,29.1144,-90.1840,1.0,3.2,72.0,29.2,'11111222,11111222,11111222' 
LUMCON,ioos:station:LUMCON:wisl1:1,2019-08-01T19:15:00Z,29.1144,-90.1840,1.0,3.7,84.0,29.2,'11111222,11111222,11111222' 
LUMCON,ioos:station:LUMCON:wisl1:1,2019-08-01T19:30:00Z,29.1144,-90.1840,1.0,4.0,106.0,29.2,'11111222,11111222,11111222' 
LUMCON,ioos:station:LUMCON:wisl1:1,2019-08-01T19:45:00Z,29.1144,-90.1840,1.0,3.0,111.0,29.6,'11111222,11111222,11111222' 
LUMCON,ioos:station:LUMCON:wisl1:1,2019-08-01T20:00:00Z,29.1144,-90.1840,1.0,2.3,112.0,29.2,'11111222,11111222,11111222' 
LUMCON,ioos:station:LUMCON:wisl1:1,2019-08-01T20:15:00Z,29.1144,-90.1840,1.0,3.2,97.0,29.2,'11111222,11111222,11111222' 
LUMCON,ioos:station:LUMCON:wisl1:1,2019-08-01T20:30:00Z,29.1144,-90.1840,1.0,2.1,106.0,29.2,'11111222,11111222,11111222' 
LUMCON,ioos:station:LUMCON:wisl1:1,2019-08-01T20:45:00Z,29.1144,-90.1840,1.0,2.3,67.0,29.2,'11111222,11111222,11111222' 
LUMCON,ioos:station:LUMCON:wisl1:1,2019-08-01T21:00:00Z,29.1144,-90.1840,1.0,2.8,89.0,29.3,'11111222,11111222,11111222' 
LUMCON,ioos:station:LUMCON:wisl1:1,2019-08-01T21:15:00Z,29.1144,-90.1840,1.0,2.1,86.0,29.3,'11111222,11111222,11111222' 
LUMCON,ioos:station:LUMCON:wisl1:1,2019-08-01T21:30:00Z,29.1144,-90.1840,1.0,0.9,87.0,29.3,'11111222,11111222,11111222' 
LUMCON,ioos:station:LUMCON:wisl1:1,2019-08-01T21:45:00Z,29.1144,-90.1840,1.0,2.0,88.0,29.4,'11111222,11111222,11111222' 
LUMCON,ioos:station:LUMCON:wisl1:1,2019-08-01T22:00:00Z,29.1144,-90.1840,1.0,2.6,148.0,29.2,'11111222,11111222,11111222' 
LUMCON,ioos:station:LUMCON:wisl1:1,2019-08-01T22:15:00Z,29.1144,-90.1840,1.0,2.6,133.0,29.1,'11111222,11111222,11111222' 
LUMCON,ioos:station:LUMCON:wisl1:1,2019-08-01T22:30:00Z,29.1144,-90.1840,1.0,2.4,110.0,29.0,'11111222,11111222,11111222' 
LUMCON,ioos:station:LUMCON:wisl1:1,2019-08-01T22:45:00Z,29.1144,-90.1840,1.0,2.4,131.0,29.1,'11111222,11111222,11111222' 
LUMCON,ioos:station:LUMCON:wisl1:1,2019-08-01T23:00:00Z,29.1144,-90.1840,1.0,1.3,160.0,29.3,'11111222,11111222,11111222' 
LUMCON,ioos:station:LUMCON:wisl1:1,2019-08-01T23:15:00Z,29.1144,-90.1840,1.0,2.4,162.0,29.3,'11111222,11111222,11111222' 
LUMCON,ioos:station:LUMCON:wisl1:1,2019-08-01T23:30:00Z,29.1144,-90.1840,1.0,2.2,155.0,29.3,'11111222,11111222,11111222' 
LUMCON,ioos:station:LUMCON:wisl1:1,2019-08-01T23:45:00Z,29.1144,-90.1840,1.0,1.8,206.0,29.4,'11111222,11111222,11111222' 
LUMCON,ioos:station:LUMCON:wisl1:1,2019-08-02T00:00:00Z,29.1144,-90.1840,1.0,1.9,182.0,29.2,'11111222,11111222,11111222' 
LUMCON,ioos:station:LUMCON:wisl1:1,2019-08-02T00:15:00Z,29.1144,-90.1840,1.0,1.3,188.0,29.2,'11111222,11111222,11111222' 
LUMCON,ioos:station:LUMCON:wisl1:1,2019-08-02T00:30:00Z,29.1144,-90.1840,1.0,1.6,184.0,28.9,'11111222,11111222,11111222' 
LUMCON,ioos:station:LUMCON:wisl1:1,2019-08-02T00:45:00Z,29.1144,-90.1840,1.0,1.4,199.0,28.8,'11111222,11111222,11111222' 
LUMCON,ioos:station:LUMCON:wisl1:1,2019-08-02T01:00:00Z,29.1144,-90.1840,1.0,1.9,198.0,28.7,'11111222,11111222,11111222' 
LUMCON,ioos:station:LUMCON:wisl1:1,2019-08-02T01:15:00Z,29.1144,-90.1840,1.0,2.8,179.0,28.5,'11111222,11111222,11111222' 
LUMCON,ioos:station:LUMCON:wisl1:1,2019-08-02T01:30:00Z,29.1144,-90.1840,1.0,1.7,185.0,28.6,'11111222,11111222,11111222' 
LUMCON,ioos:station:LUMCON:wisl1:1,2019-08-02T01:45:00Z,29.1144,-90.1840,1.0,2.4,179.0,28.6,'11111222,11111222,11111222' 
LUMCON,ioos:station:LUMCON:wisl1:1,2019-08-02T02:00:00Z,29.1144,-90.1840,1.0,1.2,149.0,28.7,'11111222,11111222,11111222' 
LUMCON,ioos:station:LUMCON:wisl1:1,2019-08-02T02:15:00Z,29.1144,-90.1840,1.0,1.6,176.0,28.5,'11111222,11111222,11111222' 
LUMCON,ioos:station:LUMCON:wisl1:1,2019-08-02T02:30:00Z,29.1144,-90.1840,1.0,1.0,242.0,28.6,'11111222,11111222,11111222' 
LUMCON,ioos:station:LUMCON:wisl1:1,2019-08-02T02:45:00Z,29.1144,-90.1840,1.0,1.5,237.0,28.3,'11111222,11111222,11111222' 
LUMCON,ioos:station:LUMCON:wisl1:1,2019-08-02T03:00:00Z,29.1144,-90.1840,1.0,1.6,230.0,28.4,'11111222,11111222,11111222' 
LUMCON,ioos:station:LUMCON:wisl1:1,2019-08-02T03:15:00Z,29.1144,-90.1840,1.0,1.0,229.0,28.5,'11111222,11111222,11111222' 
LUMCON,ioos:station:LUMCON:wisl1:1,2019-08-02T03:30:00Z,29.1144,-90.1840,1.0,1.4,195.0,28.5,'11111222,11111222,11111222' 
LUMCON,ioos:station:LUMCON:wisl1:1,2019-08-02T03:45:00Z,29.1144,-90.1840,1.0,1.0,194.0,28.4,'11111222,11111222,11111222' 
LUMCON,ioos:station:LUMCON:wisl1:1,2019-08-02T04:00:00Z,29.1144,-90.1840,1.0,1.6,204.0,28.5,'11111222,11111222,11111222' 
LUMCON,ioos:station:LUMCON:wisl1:1,2019-08-02T04:15:00Z,29.1144,-90.1840,1.0,1.9,187.0,28.4,'11111222,11111222,11111222' 
LUMCON,ioos:station:LUMCON:wisl1:1,2019-08-02T04:30:00Z,29.1144,-90.1840,1.0,0.9,231.0,28.4,'11111222,11111222,11111222' 
LUMCON,ioos:station:LUMCON:wisl1:1,2019-08-02T04:45:00Z,29.1144,-90.1840,1.0,1.9,218.0,28.2,'11111222,11111222,11111222' 
LUMCON,ioos:station:LUMCON:wisl1:1,2019-08-02T05:00:00Z,29.1144,-90.1840,1.0,2.1,207.0,28.2,'11111222,11111222,11111222' 
LUMCON,ioos:station:LUMCON:wisl1:1,2019-08-02T05:15:00Z,29.1144,-90.1840,1.0,1.9,192.0,28.1,'11111222,11111222,11111222' 
LUMCON,ioos:station:LUMCON:wisl1:1,2019-08-02T05:30:00Z,29.1144,-90.1840,1.0,1.8,201.0,28.3,'11111222,11111222,11111222' 
LUMCON,ioos:station:LUMCON:wisl1:1,2019-08-02T05:45:00Z,29.1144,-90.1840,1.0,1.7,228.0,28.2,'11111222,11111222,11111222' 
LUMCON,ioos:station:LUMCON:wisl1:1,2019-08-02T06:00:00Z,29.1144,-90.1840,1.0,1.9,215.0,28.2,'11111222,11111222,11111222' 
LUMCON,ioos:station:LUMCON:wisl1:1,2019-08-02T06:15:00Z,29.1144,-90.1840,1.0,2.1,216.0,28.2,'11111222,11111222,11111222' 
LUMCON,ioos:station:LUMCON:wisl1:1,2019-08-02T06:30:00Z,29.1144,-90.1840,1.0,1.6,236.0,28.1,'11111222,11111222,11111222' 
LUMCON,ioos:station:LUMCON:wisl1:1,2019-08-02T06:45:00Z,29.1144,-90.1840,1.0,2.2,233.0,28.1,'11111222,11111222,11111222' 
LUMCON,ioos:station:LUMCON:wisl1:1,2019-08-02T07:00:00Z,29.1144,-90.1840,1.0,1.1,235.0,28.0,'11111222,11111222,11111222' 
LUMCON,ioos:station:LUMCON:wisl1:1,2019-08-02T07:15:00Z,29.1144,-90.1840,1.0,1.5,219.0,28.0,'11111222,11111222,11111222' 
LUMCON,ioos:station:LUMCON:wisl1:1,2019-08-02T07:30:00Z,29.1144,-90.1840,1.0,1.7,236.0,28.2,'11111222,11111222,11111222' 
LUMCON,ioos:station:LUMCON:wisl1:1,2019-08-02T07:45:00Z,29.1144,-90.1840,1.0,1.3,257.0,28.1,'11111222,11111222,11111222' 
LUMCON,ioos:station:LUMCON:wisl1:1,2019-08-02T08:00:00Z,29.1144,-90.1840,1.0,4.0,330.0,27.5,'11111222,11111222,11111222' 
LUMCON,ioos:station:LUMCON:wisl1:1,2019-08-02T08:15:00Z,29.1144,-90.1840,1.0,3.9,320.0,26.6,'11111222,11111222,11111222' 
LUMCON,ioos:station:LUMCON:wisl1:1,2019-08-02T08:30:00Z,29.1144,-90.1840,1.0,4.3,325.0,26.0,'11111222,11111222,11111222' 
LUMCON,ioos:station:LUMCON:wisl1:1,2019-08-02T08:45:00Z,29.1144,-90.1840,1.0,2.7,314.0,26.5,'11111222,11111222,11111222' 
LUMCON,ioos:station:LUMCON:wisl1:1,2019-08-02T09:00:00Z,29.1144,-90.1840,1.0,3.4,338.0,27.0,'11111222,11111222,11111222' 
LUMCON,ioos:station:LUMCON:wisl1:1,2019-08-02T11:30:00Z,29.1144,-90.1840,1.0,1.9,237.0,26.4,'11111222,11111222,11111222' 
LUMCON,ioos:station:LUMCON:wisl1:1,2019-08-02T11:45:00Z,29.1144,-90.1840,1.0,2.5,228.0,26.3,'11111222,11111222,11111222' 
LUMCON,ioos:station:LUMCON:wisl1:1,2019-08-02T12:00:00Z,29.1144,-90.1840,1.0,1.6,250.0,26.6,'11111222,11111222,11111222' 
LUMCON,ioos:station:LUMCON:wisl1:1,2019-08-02T12:15:00Z,29.1144,-90.1840,1.0,3.6,253.0,26.9,'11111222,11111222,11111222' 
LUMCON,ioos:station:LUMCON:wisl1:1,2019-08-02T12:30:00Z,29.1144,-90.1840,1.0,3.7,249.0,26.6,'11111222,11111222,11111222' 
LUMCON,ioos:station:LUMCON:wisl1:1,2019-08-02T12:45:00Z,29.1144,-90.1840,1.0,3.6,272.0,26.3,'11111222,11111222,11111222' 
LUMCON,ioos:station:LUMCON:wisl1:1,2019-08-02T13:00:00Z,29.1144,-90.1840,1.0,3.5,249.0,26.2,'11111222,11111222,11111222' 
LUMCON,ioos:station:LUMCON:wisl1:1,2019-08-02T13:15:00Z,29.1144,-90.1840,1.0,3.3,248.0,26.5,'11111222,11111222,11111222' 
LUMCON,ioos:station:LUMCON:wisl1:1,2019-08-02T13:30:00Z,29.1144,-90.1840,1.0,4.7,249.0,27.2,'11111222,11111222,11111222' 
LUMCON,ioos:station:LUMCON:wisl1:1,2019-08-02T13:45:00Z,29.1144,-90.1840,1.0,4.6,251.0,27.3,'11111222,11111222,11111222' 
LUMCON,ioos:station:LUMCON:wisl1:1,2019-08-02T14:00:00Z,29.1144,-90.1840,1.0,3.3,234.0,27.8,'11111222,11111222,11111222' 
LUMCON,ioos:station:LUMCON:wisl1:1,2019-08-02T14:15:00Z,29.1144,-90.1840,1.0,2.3,277.0,27.8,'11111222,11111222,11111222' 
LUMCON,ioos:station:LUMCON:wisl1:1,2019-08-02T14:30:00Z,29.1144,-90.1840,1.0,3.6,252.0,27.7,'11111222,11111222,11111222' 
LUMCON,ioos:station:LUMCON:wisl1:1,2019-08-02T14:45:00Z,29.1144,-90.1840,1.0,2.6,239.0,28.2,'11111222,11111222,11111222' 
LUMCON,ioos:station:LUMCON:wisl1:1,2019-08-02T15:00:00Z,29.1144,-90.1840,1.0,1.9,263.0,28.6,'11111222,11111222,11111222' 
LUMCON,ioos:station:LUMCON:wisl1:1,2019-08-02T15:15:00Z,29.1144,-90.1840,1.0,2.4,229.0,28.6,'11111222,11111222,11111222' 
LUMCON,ioos:station:LUMCON:wisl1:1,2019-08-02T15:30:00Z,29.1144,-90.1840,1.0,3.8,241.0,28.8,'11111222,11111222,11111222' 
LUMCON,ioos:station:LUMCON:wisl1:1,2019-08-02T15:45:00Z,29.1144,-90.1840,1.0,3.0,233.0,28.7,'11111222,11111222,11111222' 
LUMCON,ioos:station:LUMCON:wisl1:1,2019-08-02T16:00:00Z,29.1144,-90.1840,1.0,3.8,254.0,28.8,'11111222,11111222,11111222' 
LUMCON,ioos:station:LUMCON:wisl1:1,2019-08-02T16:15:00Z,29.1144,-90.1840,1.0,4.0,252.0,29.1,'11111222,11111222,11111222' 
LUMCON,ioos:station:LUMCON:wisl1:1,2019-08-02T16:30:00Z,29.1144,-90.1840,1.0,4.2,257.0,29.0,'11111222,11111222,11111222' 
LUMCON,ioos:station:LUMCON:wisl1:1,2019-08-02T16:45:00Z,29.1144,-90.1840,1.0,4.0,246.0,29.1,'11111222,11111222,11111222' 
LUMCON,ioos:station:LUMCON:wisl1:1,2019-08-02T17:00:00Z,29.1144,-90.1840,1.0,6.3,258.0,29.1,'11111222,11111222,11111222' 
LUMCON,ioos:station:LUMCON:wisl1:1,2019-08-02T17:15:00Z,29.1144,-90.1840,1.0,4.9,249.0,29.2,'11111222,11111222,11111222' 
LUMCON,ioos:station:LUMCON:wisl1:1,2019-08-02T17:30:00Z,29.1144,-90.1840,1.0,0.6,267.0,29.2,'11111222,11111222,11111222' 
LUMCON,ioos:station:LUMCON:wisl1:1,2019-08-02T17:45:00Z,29.1144,-90.1840,1.0,1.9,324.0,29.4,'11111222,11111222,11111222' 
LUMCON,ioos:station:LUMCON:wisl1:1,2019-08-02T18:00:00Z,29.1144,-90.1840,1.0,1.5,238.0,29.8,'11111222,11111222,11111222' 
LUMCON,ioos:station:LUMCON:wisl1:1,2019-08-02T18:15:00Z,29.1144,-90.1840,1.0,3.9,243.0,29.5,'11111222,11111222,11111222' 
LUMCON,ioos:station:LUMCON:wisl1:1,2019-08-02T18:30:00Z,29.1144,-90.1840,1.0,2.1,249.0,29.6,'11111222,11111222,11111222' 
LUMCON,ioos:station:LUMCON:wisl1:1,2019-08-02T18:45:00Z,29.1144,-90.1840,1.0,2.2,210.0,29.7,'11111222,11111222,11111222' 
LUMCON,ioos:station:LUMCON:wisl1:1,2019-08-02T19:00:00Z,29.1144,-90.1840,1.0,1.8,226.0,29.8,'11111222,11111222,11111222' 
LUMCON,ioos:station:LUMCON:wisl1:1,2019-08-02T19:15:00Z,29.1144,-90.1840,1.0,2.5,277.0,29.9,'11111222,11111222,11111222' 
LUMCON,ioos:station:LUMCON:wisl1:1,2019-08-02T19:30:00Z,29.1144,-90.1840,1.0,3.0,219.0,30.0,'11111222,11111222,11111222' 
LUMCON,ioos:station:LUMCON:wisl1:1,2019-08-02T19:45:00Z,29.1144,-90.1840,1.0,3.6,188.0,29.9,'11111222,11111222,11111222' 
LUMCON,ioos:station:LUMCON:wisl1:1,2019-08-02T20:00:00Z,29.1144,-90.1840,1.0,3.2,203.0,29.5,'11111222,11111222,11111222' 
LUMCON,ioos:station:LUMCON:wisl1:1,2019-08-02T20:15:00Z,29.1144,-90.1840,1.0,2.5,217.0,29.4,'11111222,11111222,11111222' 
LUMCON,ioos:station:LUMCON:wisl1:1,2019-08-02T20:30:00Z,29.1144,-90.1840,1.0,3.2,175.0,29.4,'11111222,11111222,11111222' 
LUMCON,ioos:station:LUMCON:wisl1:1,2019-08-02T20:45:00Z,29.1144,-90.1840,1.0,3.0,165.0,29.5,'11111222,11111222,11111222' 
LUMCON,ioos:station:LUMCON:wisl1:1,2019-08-02T21:00:00Z,29.1144,-90.1840,1.0,2.7,172.0,29.2,'11111222,11111222,11111222' 
LUMCON,ioos:station:LUMCON:wisl1:1,2019-08-02T21:15:00Z,29.1144,-90.1840,1.0,1.9,213.0,29.2,'11111222,11111222,11111222' 
LUMCON,ioos:station:LUMCON:wisl1:1,2019-08-02T21:30:00Z,29.1144,-90.1840,1.0,2.1,196.0,29.3,'11111222,11111222,11111222' 
LUMCON,ioos:station:LUMCON:wisl1:1,2019-08-02T21:45:00Z,29.1144,-90.1840,1.0,2.3,199.0,29.5,'11111222,11111222,11111222' 
LUMCON,ioos:station:LUMCON:wisl1:1,2019-08-02T22:00:00Z,29.1144,-90.1840,1.0,2.9,245.0,29.6,'11111222,11111222,11111222' 
LUMCON,ioos:station:LUMCON:wisl1:1,2019-08-02T22:15:00Z,29.1144,-90.1840,1.0,2.7,232.0,29.8,'11111222,11111222,11111222' 
LUMCON,ioos:station:LUMCON:wisl1:1,2019-08-02T22:30:00Z,29.1144,-90.1840,1.0,3.0,211.0,30.1,'11111222,11111222,11111222' 
LUMCON,ioos:station:LUMCON:wisl1:1,2019-08-02T22:45:00Z,29.1144,-90.1840,1.0,0.9,210.0,30.0,'11111222,11111222,11111222' 
LUMCON,ioos:station:LUMCON:wisl1:1,2019-08-02T23:00:00Z,29.1144,-90.1840,1.0,1.8,220.0,30.0,'11111222,11111222,11111222' 
LUMCON,ioos:station:LUMCON:wisl1:1,2019-08-02T23:15:00Z,29.1144,-90.1840,1.0,3.0,173.0,29.6,'11111222,11111222,11111222' 
LUMCON,ioos:station:LUMCON:wisl1:1,2019-08-02T23:30:00Z,29.1144,-90.1840,1.0,0.6,212.0,29.5,'11111222,11111222,11111222' 
LUMCON,ioos:station:LUMCON:wisl1:1,2019-08-02T23:45:00Z,29.1144,-90.1840,1.0,1.8,176.0,29.5,'11111222,11111222,11111222' 
LUMCON,ioos:station:LUMCON:wisl1:1,2019-08-03T00:00:00Z,29.1144,-90.1840,1.0,1.8,208.0,29.5,'11111222,11111222,11111222' 
LUMCON,ioos:station:LUMCON:wisl1:1,2019-08-03T00:15:00Z,29.1144,-90.1840,1.0,2.4,233.0,29.4,'11111222,11111222,11111222' 
LUMCON,ioos:station:LUMCON:wisl1:1,2019-08-03T00:30:00Z,29.1144,-90.1840,1.0,1.8,208.0,29.1,'11111222,11111222,11111222' 
LUMCON,ioos:station:LUMCON:wisl1:1,2019-08-03T00:45:00Z,29.1144,-90.1840,1.0,1.7,205.0,29.0,'11111222,11111222,11111222' 
LUMCON,ioos:station:LUMCON:wisl1:1,2019-08-03T01:00:00Z,29.1144,-90.1840,1.0,2.1,238.0,28.9,'11111222,11111222,11111222' 
LUMCON,ioos:station:LUMCON:wisl1:1,2019-08-03T01:15:00Z,29.1144,-90.1840,1.0,1.7,229.0,28.7,'11111222,11111222,11111222' 
LUMCON,ioos:station:LUMCON:wisl1:1,2019-08-03T01:30:00Z,29.1144,-90.1840,1.0,1.5,233.0,28.6,'11111222,11111222,11111222' 
LUMCON,ioos:station:LUMCON:wisl1:1,2019-08-03T01:45:00Z,29.1144,-90.1840,1.0,1.9,237.0,28.6,'11111222,11111222,11111222' 
LUMCON,ioos:station:LUMCON:wisl1:1,2019-08-03T02:00:00Z,29.1144,-90.1840,1.0,1.5,226.0,28.5,'11111222,11111222,11111222' 
LUMCON,ioos:station:LUMCON:wisl1:1,2019-08-03T02:15:00Z,29.1144,-90.1840,1.0,1.8,259.0,28.7,'11111222,11111222,11111222' 
LUMCON,ioos:station:LUMCON:wisl1:1,2019-08-03T02:30:00Z,29.1144,-90.1840,1.0,1.6,239.0,28.6,'11111222,11111222,11111222' 
LUMCON,ioos:station:LUMCON:wisl1:1,2019-08-03T02:45:00Z,29.1144,-90.1840,1.0,1.5,232.0,28.7,'11111222,11111222,11111222' 
LUMCON,ioos:station:LUMCON:wisl1:1,2019-08-03T03:00:00Z,29.1144,-90.1840,1.0,0.8,308.0,28.5,'11111222,11111222,11111222' 